SCP
0 0 0 0 0 0 0 0 0 0 0 0 0 0 0 0 0 0 0 0 0 0 0 0 0 0 0 0 0 0 0 0 0 0 0 0 0 0 0 0 0 0 0
0 0 0 0 0 0 0 0 0 0 0 0 0 0 0 0 0 0 0 0 0 0 0 0 0 0 0 0 0 0 0 0 0 0 0 0 0 0 0 0 0 0 0
0 0 0 0 0 0 0 0 0 0 0 0 0 0 0 0 0 0 0 0 0 0 0 0 0 0 0 0 0 0 0 0 0 0 0 0 0 0 0 0 0 0 0
0 0 0 0 0 0 0 0 0 0 0 0 0 0 0 0 0 0 0 0 0 0 0 0 0 0 0 0 0 0 0 0 0 0 0 0 0 0 0 0 0 0 0
0 0 0 0 0 0 0 0 0 0 0 0 0 0 0 0 0 0 0 0 0 0 0 0 0 0 0 0 0 0 0 0 0 0 0 0 0 0 0 0 0 0 0
0 0 0 0 0 0 0 0 0 0 0 0 0 0 0 0 0 0 0 0 0 0 0 0 0 0 0 0 0 0 0 0 0 0 0 0 0 0 0 0 0 0 0
0 0 0 0 0 0 0 0 0 0 0 0 0 0 0 0 0 0 0 0 0 0 0 0 0 0 0 0 0 0 0 0 0 0 0 0 0 0 0 0 0 0 0
0 0 0 0 0 0 0 0 0 0 0 0 0 0 0 0 0 0 0 0 0 0 0 0 0 0 0 0 0 0 0 0 0 0 0 0 0 0 0 0 0 0 0
0 0 0 0 0 0 0 0 0 0 0 0 0 0 0 0 0 0 0 0 0 0 0 0 0 0 0 0 0 0 0 0 0 0 0 0 0 0 0 0 0 0 0
0 0 0 0 0 0 0 0 0 0 0 0 0 0 0 0 0 0 0 0 0 0 0 0 0 0 0 0 0 0 0 0 0 0 0 0 0 0 0 0 0 0 0
0 0 0 0 0 0 0 0 0 0 0 0 0 0 0 0 0 0 0 0 0 0 0 0 0 0 0 0 0 0 0 0 0 0 0 0 0 0 0 0 0 0 0
0 0 0 0 0 0 0 0 0 0 0 0 0 0 0 0 0 0 0 0 0 0 0 0 0 0 0 0 0 0 0 0 0 0 0 0 0 0 0 0 0 0 0
0 0 0 0 0 0 0 0 0 0 0 0 0 0 0 0 0 0 0 0 0 0 0 0 0 0 0 0 0 0 0 0 0 0 0 0 0 0 0 0 0 0 0
0 0 0 0 0 0 0 0 0 0 0 0 0 0 0 0 0 0 0 0 0 0 0 0 0 0 0 0 0 0 0 0 0 0 0 0 0 0 0 0 0 0 0
0 0 0 0 0 0 -0 0 0 0 0 0 0 0 0 0 0 0 0 0 0 0 0 0 0 0 0 0 0 0 0 0 0 0 0 0 0 0 0 0 0 0 0
0 0 0 0 0 -0 -0 0 0 0 0 0 0 0 0 0 0 0 0 0 0 0 0 0 0 0 0 0 0 0 0 0 0 0 0 0 0 0 0 0 0 0 0
0 0 0 0 -0 -0 0 0 0 0 0 0 0 0 0 0 0 0 0 0 0 0 0 0 0 0 0 0 0 0 0 0 0 0 0 0 0 0 0 0 0 0 0
0 0 0 0 0 0 0 0 0 0 0 0 0 0 0 0 0 0 0 0 0 0 0 0 0 0 0 0 0 0 0 0 0 0 0 0 0 0 0 0 0 0 0
0 0 0 0 0 0 0 0 0 0 0 0 0 0 0 0 0 0 0 0 0 0 0 0 0 0 0 0 0 0 0 0 0 0 0 0 0 0 0 0 0 0 0
0 0 0 0 0 0 0 0 0 0 0 0 0 0 0 0 0 0 0 0 0 0 0 0 0 0 0 0 0 0 0 0 0 0 0 0 0 0 0 0 0 0 0
0 0 0 0 0 0 0 0 0 0 0 0 0 0 0 0 0 0 0 0 0 0 0 0 0 0 0 0 0 0 0 0 0 0 0 0 0 0 0 0 0 0 0
0 0 0 0 0 0 0 0 0 0 0 0 0 0 0 0 0 0 0 0 0 0 0 0 0 0 0 0 0 0 0 0 0 0 0 0 0 0 0 0 0 0 0
0 0 0 0 0 0 0 0 0 0 0 0 0 0 0 0 0 0 0 0 0 0 0 0 0 0 0 0 0 0 0 0 0 0 0 0 0 0 0 0 0 0 0
0 0 0 0 0 0 0 0 0 0 0 0 0 0 0 0 0 0 0 0 0 0 0 0 0 0 0 0 0 0 0 0 0 0 0 0 0 0 0 0 0 0 0
0 0 0 0 0 0 0 0 0 0 0 0 0 0 0 0 0 0 0 0 0 0 0 0 0 0 0 0 0 0 0 0 0 0 0 0 0 0 0 0 0 0 0
0 0 0 0 0 0 0 0 0 0 0 0 0 0 0 0 0 0 0 0 0 0 0 0 0 0 0 0 0 0 0 0 0 0 0 0 0 0 0 0 0 0 0
Wind_Speed_500mb
49 49 49 49 49 52 53 55 57 56 56 59 57 53 52 47 42 45 45 45 42 38 37 34 34 34 36 33 36 38 38 37 35 36 34 33 39 42 33 36 24 39 29
54 53 54 56 57 54 57 59 58 63 61 62 62 59 52 51 48 42 45 50 47 45 42 42 40 37 37 37 39 39 41 39 39 43 45 43 39 48 33 30 41 31 30
59 59 59 62 61 63 62 61 60 62 61 65 64 63 62 63 60 57 52 49 51 51 51 48 45 41 44 44 43 40 42 42 45 45 47 27 24 31 40 48 44 33 34
62 61 58 60 64 68 65 63 63 64 64 65 69 69 69 68 61 53 49 45 43 49 53 48 45 44 43 47 45 47 46 47 45 49 57 56 60 47 32 38 40 33 34
74 74 69 63 64 64 65 61 64 69 70 70 69 68 70 68 62 56 50 46 44 40 41 40 42 45 46 44 43 47 48 50 54 54 59 59 67 49 54 49 40 26 33
85 80 74 68 68 65 66 68 69 65 66 68 70 70 68 67 65 62 59 51 45 37 32 32 36 37 33 36 36 38 45 49 54 56 57 58 50 54 43 41 45 31 22
57 62 65 66 68 71 72 78 74 68 62 62 65 64 64 65 65 64 62 58 51 44 37 36 38 38 34 40 40 40 43 43 48 46 43 48 48 41 36 37 37 27 16
24 31 42 46 46 53 62 71 75 68 62 61 62 60 59 59 61 61 60 56 54 48 44 42 43 39 41 35 38 38 41 42 42 42 37 35 30 28 29 28 20 22 20
37 34 34 37 41 42 44 49 55 57 59 58 57 57 56 54 56 56 53 53 52 46 45 45 42 44 43 37 39 38 39 40 43 40 32 26 26 23 10 18 20 29 19
41 37 27 26 24 27 31 38 44 46 46 47 45 46 48 51 50 49 50 47 43 40 46 45 46 39 38 35 35 33 31 39 24 27 22 18 11 10 6 10 20 24 22
31 30 22 18 20 22 25 25 28 30 30 33 36 39 41 45 49 51 49 48 43 43 46 44 44 40 36 31 31 28 28 25 26 25 9 6 3 8 11 22 20 19 22
22 25 24 23 19 17 18 21 24 25 27 29 30 31 35 39 39 39 38 40 40 42 47 40 37 38 30 29 29 17 19 16 11 8 8 5 12 15 18 17 17 20 24
22 26 26 21 17 19 22 22 22 23 23 24 26 29 31 29 28 30 32 32 30 28 28 35 36 33 30 20 20 18 15 13 15 14 10 13 19 14 14 15 18 20 22
23 27 30 26 23 23 23 24 26 26 27 28 31 34 34 33 33 32 31 30 28 29 32 32 29 30 28 26 24 19 20 23 17 17 21 14 12 15 17 18 16 17 19
28 34 32 27 25 28 31 30 31 32 32 34 37 36 36 35 34 34 33 33 33 33 30 29 28 28 27 26 22 25 24 17 17 16 11 14 15 16 15 14 14 16 18
21 25 26 26 28 32 31 29 33 34 33 38 37 36 35 35 36 37 38 37 35 33 30 33 30 30 30 30 29 26 18 19 17 16 16 16 15 14 14 13 14 15 16
35 33 27 28 29 29 24 26 32 35 37 37 37 38 36 37 40 41 41 41 39 38 38 39 38 39 38 34 35 24 19 16 16 15 16 14 15 15 14 13 11 9 10
54 55 51 40 36 29 32 33 37 40 38 40 43 44 41 42 45 47 47 44 42 42 44 43 42 40 38 39 33 24 21 21 19 18 19 19 17 14 11 10 5 5 10
66 58 56 41 36 41 45 42 38 39 42 46 50 51 50 51 51 51 49 47 47 47 46 44 43 41 42 39 30 25 22 20 20 21 22 20 17 15 13 11 6 4 10
74 71 60 54 55 53 51 47 46 48 51 53 54 55 55 54 53 49 48 48 47 44 45 44 42 44 44 34 29 24 22 21 23 24 23 22 19 18 17 12 7 5 9
75 64 65 61 55 54 55 56 56 58 53 52 57 56 54 51 47 46 46 45 47 48 50 48 50 50 42 35 30 23 23 24 27 25 24 23 23 22 19 14 11 11 14
27 30 31 36 37 39 40 41 46 47 50 54 55 55 52 51 51 49 47 48 52 52 53 55 54 49 41 36 28 25 27 29 29 26 25 26 26 25 21 17 15 14 17
32 33 35 36 34 31 30 30 31 37 46 50 52 55 53 53 53 53 52 54 56 57 57 58 53 49 43 34 25 32 32 31 30 29 28 28 28 25 23 21 18 16 19
8 12 17 22 23 24 24 24 27 30 34 38 46 49 51 52 52 54 54 56 58 59 60 59 55 48 40 29 34 39 32 32 33 32 31 29 27 27 27 25 18 16 20
5 3 3 5 8 9 9 10 14 21 27 32 39 43 45 46 49 51 52 52 52 54 56 54 49 42 35 36 37 32 31 33 33 33 34 33 32 31 29 24 19 18 21
8 9 9 8 7 5 6 7 10 13 18 24 30 34 37 40 44 48 51 51 52 54 54 51 45 41 37 42 40 38 37 36 36 36 37 36 34 34 30 26 23 21 23
Wind_Direction_500mb
234 231 232 229 229 229 229 231 233 236 236 239 239 240 243 244 245 243 241 244 246 247 250 254 255 262 266 269 267 270 276 279 282 287 287 292 291 293 300 304 298 319 309
239 235 234 234 233 234 234 234 235 237 239 241 243 247 253 255 256 256 248 246 247 251 251 252 258 261 266 266 273 275 277 278 281 280 289 293 287 290 299 300 307 314 311
248 244 240 237 237 235 236 238 239 240 241 242 243 245 249 251 251 249 247 247 247 247 249 254 256 261 262 267 270 270 275 281 278 282 278 272 275 279 280 291 307 305 307
247 247 244 240 240 239 239 240 242 242 243 241 241 243 246 249 252 255 256 256 256 250 246 249 253 257 266 269 273 275 276 278 282 279 276 280 280 285 276 283 287 301 303
242 246 248 247 244 242 241 243 244 242 243 241 241 242 245 249 253 254 254 252 254 252 245 250 255 259 263 269 272 275 276 275 275 277 279 284 281 284 285 282 297 281 295
245 248 246 244 243 241 239 240 239 242 243 242 239 241 244 246 249 251 252 253 254 255 246 249 255 259 266 268 268 272 275 277 276 276 282 280 280 286 285 279 287 285 300
250 252 251 247 243 239 237 237 236 239 241 237 236 238 241 244 248 251 253 255 256 257 258 257 257 261 260 272 265 266 276 273 277 283 286 289 282 274 277 278 277 286 308
244 258 246 236 234 233 232 235 233 234 235 235 236 237 239 242 246 249 251 255 256 255 251 250 255 261 254 261 265 273 278 277 278 276 279 279 274 277 280 288 282 300 302
255 271 254 231 222 223 230 227 226 230 233 236 239 238 238 240 244 247 251 250 250 243 245 249 252 252 252 260 264 267 269 277 275 277 277 276 277 273 293 320 321 292 292
242 241 245 229 214 210 215 217 223 228 232 233 236 237 238 241 244 247 249 248 243 235 232 238 243 248 243 262 258 267 269 280 272 287 273 283 274 280 284 263 285 287 298
224 219 224 221 210 206 209 210 214 218 221 224 225 231 238 246 248 249 246 242 237 230 228 232 237 238 241 255 264 260 267 274 284 272 247 262 41 309 279 293 300 304 308
214 212 219 223 221 220 225 223 223 224 228 231 235 237 239 239 239 241 240 237 235 229 229 221 228 229 236 250 260 239 261 256 269 224 182 180 262 269 286 306 305 300 304
197 208 220 221 220 216 215 216 218 219 217 221 223 226 231 234 235 233 229 224 221 215 211 221 219 219 233 243 239 230 233 212 182 181 224 254 269 276 279 283 289 298 311
201 208 217 213 209 214 218 219 219 222 224 227 230 231 231 232 232 231 227 221 215 214 216 217 212 207 218 225 222 214 196 181 207 237 249 261 267 274 278 281 295 305 313
211 212 212 212 215 220 223 223 227 232 235 237 237 236 234 231 227 221 216 213 212 213 213 207 204 208 208 215 208 193 193 222 253 244 246 257 263 270 279 289 296 300 308
226 213 211 213 216 214 215 229 237 238 243 246 245 241 235 230 223 219 217 217 214 207 206 203 204 206 205 199 192 193 218 245 244 246 252 260 265 271 274 283 296 306 323
245 224 227 245 230 223 233 253 246 245 250 252 245 239 236 229 222 218 218 212 208 213 208 204 203 202 197 196 190 209 233 236 245 259 263 269 271 272 281 283 295 316 339
254 246 257 259 237 235 249 258 249 244 246 248 242 238 236 229 223 221 216 209 209 208 209 205 205 202 201 194 198 216 223 235 247 255 261 259 258 262 267 274 271 312 348
260 265 273 263 262 268 267 264 257 251 246 243 241 239 236 232 227 220 214 212 211 212 210 206 205 204 199 200 216 218 224 236 245 249 254 253 250 241 238 222 235 323 348
258 262 262 264 265 266 268 265 261 256 248 244 243 238 235 232 227 222 218 217 217 216 211 210 206 202 204 214 212 222 235 236 250 259 253 246 240 234 218 221 215 262 317
253 255 258 260 259 257 260 261 258 256 255 245 241 237 232 230 228 224 224 221 216 211 213 211 209 205 210 212 218 231 240 251 258 251 246 239 237 228 229 223 237 279 311
230 239 250 256 257 256 257 260 261 255 248 242 236 233 229 227 223 221 220 214 215 216 216 212 208 211 212 218 224 236 250 254 250 243 237 236 230 232 231 236 256 289 315
249 251 252 252 254 255 256 260 253 245 241 238 231 228 225 224 222 223 220 217 218 219 217 213 211 213 216 221 235 252 255 254 250 246 236 233 234 232 237 245 259 289 316
238 250 253 255 258 257 257 253 248 237 235 233 227 225 224 223 222 222 223 224 223 218 216 216 215 217 221 230 247 253 250 247 242 242 240 237 234 233 238 247 262 290 308
85 120 175 223 228 229 232 232 225 220 215 217 222 225 227 227 228 229 230 228 227 226 223 220 222 226 236 253 253 251 253 248 243 240 240 237 233 233 239 246 263 283 300
88 89 95 95 97 120 151 166 180 200 212 219 224 228 231 232 231 231 230 225 222 222 222 222 226 235 246 244 249 247 246 246 246 243 241 241 239 240 243 250 263 278 294
Wind_Speed_850mb
49 49 49 49 49 52 53 55 57 56 56 59 57 53 52 47 42 45 45 45 42 38 37 34 34 34 36 33 36 38 38 37 35 36 34 33 39 42 33 36 24 39 29
54 53 54 56 57 54 57 59 58 63 61 62 62 59 52 51 48 42 45 50 47 45 42 42 40 37 37 37 39 39 41 39 39 43 45 43 39 48 33 30 41 31 30
59 59 59 62 61 63 62 61 60 62 61 65 64 63 62 63 60 57 52 49 51 51 51 48 45 41 44 44 43 40 42 42 45 45 47 27 24 31 40 48 44 33 34
62 61 58 60 64 68 65 63 63 64 64 65 69 69 69 68 61 53 49 45 43 49 53 48 45 44 43 47 45 47 46 47 45 49 57 56 60 47 32 38 40 33 34
74 74 69 63 64 64 65 61 64 69 70 70 69 68 70 68 62 56 50 46 44 40 41 40 42 45 46 44 43 47 48 50 54 54 59 59 67 49 54 49 40 26 33
85 80 74 68 68 65 66 68 69 65 66 68 70 70 68 67 65 62 59 51 45 37 32 32 36 37 33 36 36 38 45 49 54 56 57 58 50 54 43 41 45 31 22
57 62 65 66 68 71 72 78 74 68 62 62 65 64 64 65 65 64 62 58 51 44 37 36 38 38 34 40 40 40 43 43 48 46 43 48 48 41 36 37 37 27 16
24 31 42 46 46 53 62 71 75 68 62 61 62 60 59 59 61 61 60 56 54 48 44 42 43 39 41 35 38 38 41 42 42 42 37 35 30 28 29 28 20 22 20
37 34 34 37 41 42 44 49 55 57 59 58 57 57 56 54 56 56 53 53 52 46 45 45 42 44 43 37 39 38 39 40 43 40 32 26 26 23 10 18 20 29 19
41 37 27 26 24 27 31 38 44 46 46 47 45 46 48 51 50 49 50 47 43 40 46 45 46 39 38 35 35 33 31 39 24 27 22 18 11 10 6 10 20 24 22
31 30 22 18 20 22 25 25 28 30 30 33 36 39 41 45 49 51 49 48 43 43 46 44 44 40 36 31 31 28 28 25 26 25 9 6 3 8 11 22 20 19 22
22 25 24 23 19 17 18 21 24 25 27 29 30 31 35 39 39 39 38 40 40 42 47 40 37 38 30 29 29 17 19 16 11 8 8 5 12 15 18 17 17 20 24
22 26 26 21 17 19 22 22 22 23 23 24 26 29 31 29 28 30 32 32 30 28 28 35 36 33 30 20 20 18 15 13 15 14 10 13 19 14 14 15 18 20 22
23 27 30 26 23 23 23 24 26 26 27 28 31 34 34 33 33 32 31 30 28 29 32 32 29 30 28 26 24 19 20 23 17 17 21 14 12 15 17 18 16 17 19
28 34 32 27 25 28 31 30 31 32 32 34 37 36 36 35 34 34 33 33 33 33 30 29 28 28 27 26 22 25 24 17 17 16 11 14 15 16 15 14 14 16 18
21 25 26 26 28 32 31 29 33 34 33 38 37 36 35 35 36 37 38 37 35 33 30 33 30 30 30 30 29 26 18 19 17 16 16 16 15 14 14 13 14 15 16
35 33 27 28 29 29 24 26 32 35 37 37 37 38 36 37 40 41 41 41 39 38 38 39 38 39 38 34 35 24 19 16 16 15 16 14 15 15 14 13 11 9 10
54 55 51 40 36 29 32 33 37 40 38 40 43 44 41 42 45 47 47 44 42 42 44 43 42 40 38 39 33 24 21 21 19 18 19 19 17 14 11 10 5 5 10
66 58 56 41 36 41 45 42 38 39 42 46 50 51 50 51 51 51 49 47 47 47 46 44 43 41 42 39 30 25 22 20 20 21 22 20 17 15 13 11 6 4 10
74 71 60 54 55 53 51 47 46 48 51 53 54 55 55 54 53 49 48 48 47 44 45 44 42 44 44 34 29 24 22 21 23 24 23 22 19 18 17 12 7 5 9
75 64 65 61 55 54 55 56 56 58 53 52 57 56 54 51 47 46 46 45 47 48 50 48 50 50 42 35 30 23 23 24 27 25 24 23 23 22 19 14 11 11 14
27 30 31 36 37 39 40 41 46 47 50 54 55 55 52 51 51 49 47 48 52 52 53 55 54 49 41 36 28 25 27 29 29 26 25 26 26 25 21 17 15 14 17
32 33 35 36 34 31 30 30 31 37 46 50 52 55 53 53 53 53 52 54 56 57 57 58 53 49 43 34 25 32 32 31 30 29 28 28 28 25 23 21 18 16 19
8 12 17 22 23 24 24 24 27 30 34 38 46 49 51 52 52 54 54 56 58 59 60 59 55 48 40 29 34 39 32 32 33 32 31 29 27 27 27 25 18 16 20
5 3 3 5 8 9 9 10 14 21 27 32 39 43 45 46 49 51 52 52 52 54 56 54 49 42 35 36 37 32 31 33 33 33 34 33 32 31 29 24 19 18 21
8 9 9 8 7 5 6 7 10 13 18 24 30 34 37 40 44 48 51 51 52 54 54 51 45 41 37 42 40 38 37 36 36 36 37 36 34 34 30 26 23 21 23
Wind_Direction_850mb
234 231 232 229 229 229 229 231 233 236 236 239 239 240 243 244 245 243 241 244 246 247 250 254 255 262 266 269 267 270 276 279 282 287 287 292 291 293 300 304 298 319 309
239 235 234 234 233 234 234 234 235 237 239 241 243 247 253 255 256 256 248 246 247 251 251 252 258 261 266 266 273 275 277 278 281 280 289 293 287 290 299 300 307 314 311
248 244 240 237 237 235 236 238 239 240 241 242 243 245 249 251 251 249 247 247 247 247 249 254 256 261 262 267 270 270 275 281 278 282 278 272 275 279 280 291 307 305 307
247 247 244 240 240 239 239 240 242 242 243 241 241 243 246 249 252 255 256 256 256 250 246 249 253 257 266 269 273 275 276 278 282 279 276 280 280 285 276 283 287 301 303
242 246 248 247 244 242 241 243 244 242 243 241 241 242 245 249 253 254 254 252 254 252 245 250 255 259 263 269 272 275 276 275 275 277 279 284 281 284 285 282 297 281 295
245 248 246 244 243 241 239 240 239 242 243 242 239 241 244 246 249 251 252 253 254 255 246 249 255 259 266 268 268 272 275 277 276 276 282 280 280 286 285 279 287 285 300
250 252 251 247 243 239 237 237 236 239 241 237 236 238 241 244 248 251 253 255 256 257 258 257 257 261 260 272 265 266 276 273 277 283 286 289 282 274 277 278 277 286 308
244 258 246 236 234 233 232 235 233 234 235 235 236 237 239 242 246 249 251 255 256 255 251 250 255 261 254 261 265 273 278 277 278 276 279 279 274 277 280 288 282 300 302
255 271 254 231 222 223 230 227 226 230 233 236 239 238 238 240 244 247 251 250 250 243 245 249 252 252 252 260 264 267 269 277 275 277 277 276 277 273 293 320 321 292 292
242 241 245 229 214 210 215 217 223 228 232 233 236 237 238 241 244 247 249 248 243 235 232 238 243 248 243 262 258 267 269 280 272 287 273 283 274 280 284 263 285 287 298
224 219 224 221 210 206 209 210 214 218 221 224 225 231 238 246 248 249 246 242 237 230 228 232 237 238 241 255 264 260 267 274 284 272 247 262 41 309 279 293 300 304 308
214 212 219 223 221 220 225 223 223 224 228 231 235 237 239 239 239 241 240 237 235 229 229 221 228 229 236 250 260 239 261 256 269 224 182 180 262 269 286 306 305 300 304
197 208 220 221 220 216 215 216 218 219 217 221 223 226 231 234 235 233 229 224 221 215 211 221 219 219 233 243 239 230 233 212 182 181 224 254 269 276 279 283 289 298 311
201 208 217 213 209 214 218 219 219 222 224 227 230 231 231 232 232 231 227 221 215 214 216 217 212 207 218 225 222 214 196 181 207 237 249 261 267 274 278 281 295 305 313
211 212 212 212 215 220 223 223 227 232 235 237 237 236 234 231 227 221 216 213 212 213 213 207 204 208 208 215 208 193 193 222 253 244 246 257 263 270 279 289 296 300 308
226 213 211 213 216 214 215 229 237 238 243 246 245 241 235 230 223 219 217 217 214 207 206 203 204 206 205 199 192 193 218 245 244 246 252 260 265 271 274 283 296 306 323
245 224 227 245 230 223 233 253 246 245 250 252 245 239 236 229 222 218 218 212 208 213 208 204 203 202 197 196 190 209 233 236 245 259 263 269 271 272 281 283 295 316 339
254 246 257 259 237 235 249 258 249 244 246 248 242 238 236 229 223 221 216 209 209 208 209 205 205 202 201 194 198 216 223 235 247 255 261 259 258 262 267 274 271 312 348
260 265 273 263 262 268 267 264 257 251 246 243 241 239 236 232 227 220 214 212 211 212 210 206 205 204 199 200 216 218 224 236 245 249 254 253 250 241 238 222 235 323 348
258 262 262 264 265 266 268 265 261 256 248 244 243 238 235 232 227 222 218 217 217 216 211 210 206 202 204 214 212 222 235 236 250 259 253 246 240 234 218 221 215 262 317
253 255 258 260 259 257 260 261 258 256 255 245 241 237 232 230 228 224 224 221 216 211 213 211 209 205 210 212 218 231 240 251 258 251 246 239 237 228 229 223 237 279 311
230 239 250 256 257 256 257 260 261 255 248 242 236 233 229 227 223 221 220 214 215 216 216 212 208 211 212 218 224 236 250 254 250 243 237 236 230 232 231 236 256 289 315
249 251 252 252 254 255 256 260 253 245 241 238 231 228 225 224 222 223 220 217 218 219 217 213 211 213 216 221 235 252 255 254 250 246 236 233 234 232 237 245 259 289 316
238 250 253 255 258 257 257 253 248 237 235 233 227 225 224 223 222 222 223 224 223 218 216 216 215 217 221 230 247 253 250 247 242 242 240 237 234 233 238 247 262 290 308
85 120 175 223 228 229 232 232 225 220 215 217 222 225 227 227 228 229 230 228 227 226 223 220 222 226 236 253 253 251 253 248 243 240 240 237 233 233 239 246 263 283 300
88 89 95 95 97 120 151 166 180 200 212 219 224 228 231 232 231 231 230 225 222 222 222 222 226 235 246 244 249 247 246 246 246 243 241 241 239 240 243 250 263 278 294